SCP
0 0 0 0 0 0 0 0 0 0 0 0 0 0 0 0 0 0 0 0 0 0 0 0 0 0 0 0 0 0 0 0 0 0 0 0 0 0 0 0 0 0 0 0 0 0 0 0 0
0 0 0 0 0 0 0 0 0 0 0 0 0 0 0 0 0 0 0 0 0 0 0 0 0 0 0 0 0 0 0 0 0 0 0 0 0 0 0 0 0 0 0 0 0 0 0 0 0
0 0 0 0 0 0 0 0 0 0 0 0 0 0 0 0 0 0 0 0 0 0 0 0 0 0 0 0 0 0 0 0 0 0 0 0 0 0 0 0 0 0 0 0 0 0 0 0 0
0 0 0 0 0 0 0 0 0 0 0 0 0 0 0 0 0 0 0 0 0 0 0 0 0 0 0 0 0 0 0 0 0 0 0 0 0 0 0 0 0 0 0 0 0 0 0 0 0
0 0 0 0 0 0 0 0 0 0 0 0 0 0 0 0 0 0 0 0 0 0 0 0 0 0 0 0 0 0 0 0 0 0 0 0 0 0 0 0 0 0 0 0 0 0 0 0 0
0 0 0 0 0 0 0 0 0 0 0 0 0 0 0 0 0 0 0 0 0 0 0 0 0 0 0 0 0 0 0 0 0 0 0 0 0 0 0 0 0 0 0 0 0 0 0 0 0
0 0 0 0 0 0 0 0 0 0 0 0 0 0 0 0 0 0 0 0 0 0 -0 0 0 0 0 0 0 0 0 0 0 0 0 0 0 0 0 0 0 0 0 0 0 0 0 0 0
0 0 0 0 0 0 0 0 0 0 0 0 0 0 0 0 0 0 0 0 0 0 -0 -0 -0 -0 0 0 0 0 0 0 0 0 0 0 0 0 0 0 0 0 0 0 0 0 0 0 0
0 0 0 0 0 0 0 0 0 0 0 0 0 0 0 0 0 0 0 0 0 0 -0 -0 -0 -0 -0 0 0 0 0 0 0 0 0 0 0 0 0 0 0 0 0 0 0 0 0 0 0
0 0 0 0 0 0 0 0 0 0 0 0 0 0 0 0 0 0 0 0 0 0 0 0 -0 -0 -0 0 0 0 0 0 0 0 0 0 0 0 0 0 0 0 0 0 0 0 0 0 0
0 0 0 0 0 0 0 0 0 0 0 0 0 0 0 0 0 0 0 0 0 0 0 0 0 0 0 0 0 -0 -0 0 0 0 0 0 0 0 0 0 0 0 0 0 0 0 0 0 0
0 0 0 0 0 0 0 0 0 0 0 0 0 0 0 0 0 0 0 0 0 0 0 0 0 0 0 0 0 0 0 0 0 0 0 0 0 0 0 0 0 0 0 0 0 0 0 0 0
0 0 0 0 0 0 0 0 0 0 0 0 0 0 0 0 0 0 0 0 0 0 0 0 0 0 0 0 0 0 0 0 0 0 0 0 0 0 0 0 0 0 0 0 0 0 0 0 0
0 0 0 0 0 0 0 0 0 0 0 0 0 0 0 0 0 0 0 0 0 0 0 0 0 0 0 0 0 0 0 0 0 0 0 0 0 0 0 0 0 0 0 0 0 0 0 0 0
0 0 0 0 0 0 0 0 0 0 0 0 0 0 1 1 1 1 1 1 0 0 0 0 0 0 0 0 0 0 0 0 0 0 0 0 0 0 0 0 0 0 0 0 0 0 0 0 0
0 0 0 0 0 0 0 0 0 0 0 0 0 0 1 1 1 1 1 1 1 1 1 0 0 0 0 0 0 0 0 0 0 0 0 0 0 0 0 0 0 0 0 0 0 0 0 0 0
0 0 0 0 0 0 0 0 0 0 0 0 0 1 1 1 1 1 1 1 1 1 1 1 0 0 0 0 0 0 0 0 0 0 0 0 0 0 0 0 0 0 0 0 0 0 0 0 0
0 0 0 0 0 0 0 0 0 0 0 0 0 1 1 1 1 1 1 1 1 1 1 0 0 0 0 0 0 0 0 0 0 0 0 0 0 0 0 0 0 0 0 0 0 0 0 0 0
0 0 0 0 0 0 0 0 0 0 0 0 0 1 1 1 1 1 1 1 1 1 1 0 0 0 0 0 0 0 0 0 0 0 0 0 0 0 0 0 0 0 0 0 0 0 0 0 0
0 0 0 0 0 0 0 0 0 0 0 0 0 1 1 1 1 1 1 1 1 1 1 0 0 0 0 0 0 0 0 0 0 0 0 0 0 0 0 0 0 0 0 0 0 0 0 0 0
0 0 0 0 0 0 0 0 0 0 0 0 1 1 1 1 1 1 1 1 1 1 1 1 0 0 0 0 0 0 0 0 0 0 0 0 0 0 0 0 0 0 0 0 0 0 0 0 0
0 0 0 0 0 0 0 0 0 0 0 0 1 1 1 1 1 1 1 1 1 1 1 1 0 0 0 0 0 0 0 0 0 0 0 0 0 0 0 0 0 0 0 0 0 0 0 0 0
0 0 0 0 0 0 0 0 0 0 0 0 1 1 1 1 1 1 1 1 1 1 1 1 1 0 0 0 0 0 0 0 0 0 0 0 0 0 0 0 0 0 0 0 0 0 0 0 0
0 0 0 0 0 0 0 0 0 0 0 0 1 1 1 1 1 1 1 1 1 1 1 1 1 0 0 0 0 0 0 0 0 0 0 0 0 0 0 0 0 0 0 0 0 0 0 0 0
0 0 0 0 0 0 0 0 0 0 0 0 1 1 1 1 1 1 1 1 1 1 1 1 1 1 0 0 0 0 0 0 0 0 0 0 0 0 0 0 0 0 0 0 0 0 0 0 0
0 0 0 0 0 0 0 0 0 0 0 0 1 1 1 1 1 1 1 1 1 1 1 1 1 1 1 0 0 0 0 0 0 0 0 0 0 0 0 0 0 0 0 0 0 0 0 0 0
0 0 0 0 0 0 0 0 0 0 0 0 1 1 1 1 1 1 1 1 1 1 1 1 1 1 1 0 0 0 0 0 0 0 0 0 0 0 0 0 0 0 0 0 0 0 0 0 0
0 0 0 0 0 0 0 0 0 0 0 0 1 1 1 1 1 1 1 1 1 1 1 1 1 1 1 0 0 0 0 0 0 0 0 0 0 0 0 0 0 0 0 0 0 0 0 0 0
0 0 0 0 0 0 0 0 0 0 0 0 1 1 1 1 1 1 1 1 1 1 1 1 1 1 1 0 0 0 0 0 0 0 0 0 0 0 0 0 0 0 0 0 0 0 0 0 0
0 0 0 0 0 0 0 0 0 0 0 0 1 1 1 1 1 1 1 1 1 1 1 1 1 1 1 0 0 0 0 0 0 0 0 0 0 0 0 0 0 0 0 0 0 0 0 0 0
Wind_Speed
4 4 2 1 5 6 8 8 10 10 7 9 10 10 10 8 7 8 4 10 10 7 6 9 12 13 13 13 13 14 14 15 15 15 16 16 16 16 16 16 16 16 17 17 16 16 16 16 16
3 3 1 4 6 6 7 9 14 13 13 13 13 14 12 10 10 11 6 10 10 8 6 8 12 13 13 13 13 13 14 14 14 15 15 15 15 15 15 15 16 15 15 15 15 15 15 14 14
3 2 3 4 4 7 8 11 14 14 12 11 8 8 7 8 10 8 9 13 9 7 6 8 13 13 13 13 13 13 14 14 14 14 14 15 15 15 15 15 15 15 14 14 14 13 13 13 12
2 3 4 5 6 6 10 12 15 14 11 10 10 8 5 7 7 12 15 14 11 7 6 8 13 13 13 13 13 13 13 13 13 13 14 14 14 14 14 14 14 14 13 12 12 12 11 11 10
3 4 6 5 6 7 11 14 14 12 7 11 12 10 6 6 16 18 16 14 12 8 5 7 13 13 13 13 12 13 13 13 13 13 13 13 13 13 13 13 13 13 12 11 11 10 10 9 9
4 4 5 5 7 8 9 13 15 16 16 14 12 10 5 11 17 16 14 12 11 10 7 7 12 13 12 12 12 12 12 12 12 12 12 12 12 12 12 12 12 12 11 10 9 9 8 7 7
5 4 3 6 8 8 9 10 13 14 14 10 10 8 5 9 13 14 13 11 10 9 7 5 6 8 11 12 12 12 11 11 11 11 11 11 11 11 10 10 10 10 9 8 8 7 6 5 5
5 5 4 4 8 7 8 8 12 15 11 13 9 8 7 9 13 13 12 10 9 7 7 6 5 4 4 6 10 11 11 11 10 10 10 9 9 9 9 8 8 9 8 7 6 5 4 4 3
5 6 4 5 8 7 10 12 9 10 12 7 6 8 12 15 16 13 10 8 7 8 6 6 5 5 4 4 8 8 9 9 8 7 8 6 3 3 4 6 7 7 7 6 5 3 2 1 1
6 6 6 6 8 10 12 13 9 9 11 10 12 11 13 15 15 14 12 10 9 9 7 6 6 6 5 5 4 3 3 3 3 2 3 2 2 2 3 4 6 6 5 4 4 3 2 1 0
5 6 6 7 9 10 11 9 8 12 10 14 16 15 13 13 12 12 11 10 9 9 8 7 7 6 5 3 4 2 1 2 2 3 3 2 2 1 1 1 1 2 3 1 2 2 1 1 1
5 4 7 7 9 10 9 8 8 9 11 14 15 14 12 12 11 11 10 9 8 8 8 7 7 6 5 5 4 3 2 2 2 3 4 3 2 1 2 1 1 1 1 2 2 1 2 2 3
6 4 5 7 9 11 11 10 10 9 13 13 13 12 11 11 10 9 9 9 9 8 7 7 7 6 6 5 3 4 3 3 3 3 3 4 3 2 2 2 1 2 2 2 2 2 3 2 2
2 4 7 7 8 9 14 10 9 11 13 12 12 10 10 11 11 9 9 8 8 8 7 6 6 6 6 4 3 3 3 3 3 3 4 4 3 3 3 2 2 2 2 2 3 2 2 1 1
3 6 6 4 5 6 11 8 9 13 13 12 10 10 10 10 11 11 11 10 9 9 7 6 6 5 5 4 3 3 3 3 3 3 3 4 4 4 3 2 2 2 2 2 1 1 1 1 1
4 5 2 2 3 3 9 7 9 12 14 12 11 11 10 9 10 10 10 9 9 9 7 6 6 5 4 3 3 2 2 3 2 2 2 3 3 3 3 2 1 1 1 1 1 1 1 1 1
5 2 1 2 2 3 6 7 9 10 13 12 11 11 10 9 8 9 10 10 9 9 7 6 5 5 4 3 2 2 2 2 2 2 2 2 3 3 3 2 2 1 1 1 1 1 2 2 1
2 2 2 4 4 5 5 6 10 11 13 13 11 10 10 11 10 10 10 10 9 8 7 6 5 4 4 3 2 1 1 1 1 2 2 3 2 2 2 1 1 1 1 0 0 1 1 1 2
4 3 2 3 5 6 6 7 10 11 10 11 10 10 11 11 9 9 10 10 9 7 7 6 6 4 3 2 2 1 1 0 1 1 2 3 2 2 2 1 1 1 1 1 1 1 1 1 2
2 3 2 2 4 6 6 6 8 10 12 13 14 13 12 10 8 8 8 9 9 8 7 7 6 5 4 3 2 2 2 1 2 1 1 2 2 2 2 2 1 1 1 0 0 1 1 1 2
3 3 3 2 1 2 6 0 3 6 6 8 11 12 12 13 12 11 9 7 7 8 8 7 6 6 5 4 2 1 1 1 1 0 0 1 2 2 2 2 2 1 1 1 1 1 2 2 1
4 4 3 3 3 1 4 2 5 5 5 7 9 10 11 12 11 11 11 10 9 8 7 6 7 6 5 4 3 4 3 2 2 1 1 0 1 1 1 1 2 1 1 0 1 1 1 2 1
6 3 3 3 4 1 1 4 5 3 6 9 10 13 13 13 13 13 13 12 10 8 7 6 6 5 5 5 5 4 3 2 1 1 2 1 1 1 1 1 1 1 0 0 0 0 0 1 2
3 4 6 6 6 1 3 4 4 6 11 11 11 13 13 14 13 12 10 9 7 6 6 5 6 5 5 5 5 5 4 3 3 2 1 1 0 1 1 1 1 1 1 1 1 1 1 0 1
4 7 5 5 5 4 2 3 7 9 10 13 14 13 13 13 13 11 10 9 8 8 7 6 6 5 5 5 4 4 4 4 3 3 2 2 1 1 1 1 1 1 1 1 1 1 1 1 1
3 10 9 5 4 4 2 3 7 6 6 8 10 11 12 12 11 11 11 10 10 9 8 7 6 5 5 4 3 3 3 2 2 2 2 2 1 1 1 1 2 2 2 2 2 1 1 1 1
4 4 9 8 2 1 3 3 5 2 4 6 8 9 10 12 12 11 10 10 9 9 9 8 7 5 5 5 4 3 3 3 3 3 2 1 1 1 2 2 2 2 3 3 2 2 2 2 1
7 7 6 6 4 1 3 3 4 3 4 5 7 9 10 9 10 10 9 9 8 8 7 7 6 6 5 5 4 4 3 3 3 3 3 2 2 2 2 3 3 3 3 3 3 2 2 3 2
3 4 6 5 6 6 2 7 7 9 8 9 9 10 12 12 11 10 9 9 8 7 7 7 6 5 5 5 4 4 3 3 4 3 3 3 2 2 3 4 4 4 3 3 3 2 3 3 3
7 7 8 6 3 5 4 8 6 8 8 8 9 10 11 12 11 10 9 9 8 8 7 7 6 6 5 5 5 4 4 4 4 3 3 3 3 3 3 4 4 4 3 3 3 3 3 3 3
Wind_Direction
189 183 165 90 53 59 83 90 95 86 72 69 79 84 82 67 96 122 143 134 134 130 118 110 107 104 101 97 95 93 92 92 93 94 95 95 96 96 98 99 99 99 99 101 102 103 103 105 106
181 171 102 56 80 84 84 98 93 97 114 103 85 83 77 74 90 115 129 139 135 128 119 115 112 108 105 101 98 96 96 95 94 95 97 97 98 98 99 102 102 102 102 102 103 104 105 107 108
185 168 88 68 99 120 112 108 108 105 107 99 93 71 70 102 116 132 146 142 131 121 118 122 116 113 109 106 103 101 100 99 98 99 99 100 101 102 102 103 104 104 105 105 105 107 107 107 106
131 61 51 73 100 122 123 123 117 108 86 81 90 76 74 114 122 134 139 136 126 121 121 126 120 117 113 110 108 106 105 104 104 103 103 104 105 105 107 107 108 108 108 107 107 108 107 108 106
85 68 58 71 90 99 114 119 116 106 90 91 94 101 92 97 121 131 137 135 131 129 127 128 125 122 118 115 113 110 109 109 108 108 106 108 110 111 110 111 113 114 113 112 110 109 107 105 104
69 70 78 99 104 100 109 114 107 102 110 109 107 107 105 125 131 137 137 135 137 137 134 131 130 127 124 121 118 116 115 113 113 113 111 111 112 112 113 115 116 118 118 116 113 113 109 103 99
116 103 122 123 112 114 125 122 117 122 124 124 125 107 119 135 141 139 135 133 135 137 135 131 133 130 130 128 127 126 124 121 120 119 118 118 118 117 117 118 120 121 122 121 120 118 112 102 95
140 112 102 114 118 125 130 116 126 130 122 131 129 123 148 149 138 131 130 131 136 141 144 141 135 132 132 132 135 136 133 130 128 127 126 126 125 125 127 127 129 130 131 130 128 125 119 110 101
106 89 121 146 131 131 121 106 110 110 119 131 105 126 143 136 132 128 129 133 144 149 154 153 150 151 148 150 146 142 140 139 137 137 139 130 114 121 133 144 145 143 144 145 145 142 137 136 117
103 117 166 162 140 135 127 120 120 106 109 105 110 123 133 133 136 140 148 155 162 165 169 167 164 165 164 160 141 148 146 144 146 152 150 137 143 167 161 164 162 161 163 169 178 186 197 249 330
115 133 132 125 132 130 127 122 109 117 129 143 142 144 142 139 142 148 156 159 163 165 165 169 170 171 173 155 157 168 164 164 176 178 176 161 157 172 166 156 176 181 188 207 217 225 244 244 249
97 110 123 124 121 119 124 119 111 128 150 150 146 145 141 143 146 150 154 156 151 150 153 160 163 164 166 158 164 171 178 172 179 182 172 158 155 171 178 190 202 205 220 222 235 233 246 249 239
77 94 94 110 110 115 109 109 114 126 136 141 142 139 141 145 144 148 147 143 141 144 149 155 153 151 149 148 166 168 180 175 177 170 167 160 159 173 184 201 208 209 208 206 218 221 227 230 218
83 78 87 95 93 101 108 106 105 137 141 143 145 143 143 146 146 143 143 141 141 144 150 149 144 142 136 138 151 160 169 171 168 168 169 164 163 168 176 187 196 213 215 204 203 206 198 199 172
79 76 54 75 94 114 103 93 131 152 147 145 152 150 146 147 148 153 156 152 150 149 148 147 147 140 138 142 146 147 164 162 165 172 167 163 164 166 164 169 194 215 213 205 197 198 157 157 138
36 73 76 289 116 138 104 136 167 159 151 154 161 159 153 156 158 156 153 149 149 148 149 157 151 144 145 142 137 128 141 149 164 165 162 165 171 168 155 169 217 229 191 174 173 163 139 141 134
24 76 194 258 203 143 110 155 179 170 158 160 164 164 160 158 161 159 154 150 151 153 152 155 147 152 152 146 138 129 129 138 155 158 169 177 173 174 162 176 215 208 161 175 184 148 151 157 172
237 206 227 212 211 138 133 165 176 177 168 165 165 165 163 165 171 167 160 155 153 154 152 151 151 156 147 133 112 87 85 111 140 161 177 172 172 177 165 175 201 169 148 184 140 143 147 161 173
204 200 223 228 175 136 158 173 184 179 175 168 169 170 171 174 172 163 160 157 152 151 153 154 151 160 144 130 128 127 156 193 210 205 187 178 176 170 157 163 174 164 168 210 195 146 131 162 146
213 177 218 242 164 147 164 186 192 179 183 179 176 175 175 169 161 165 161 161 162 164 164 162 161 163 162 161 164 168 165 188 198 213 181 178 178 178 163 165 183 178 180 243 211 158 154 215 168
272 195 192 187 102 107 117 34 207 203 187 184 181 178 172 169 170 172 166 166 166 173 174 172 167 164 167 166 143 116 86 48 40 45 179 204 182 181 177 166 174 178 168 203 229 200 178 207 239
249 229 170 159 121 211 134 176 247 205 191 190 185 176 174 176 175 177 172 172 176 181 178 170 167 165 169 164 156 159 166 178 205 188 178 180 155 155 151 131 137 140 146 197 247 210 186 175 216
219 207 165 155 133 74 66 129 265 193 196 201 191 179 178 179 179 181 181 179 179 175 174 173 167 168 168 166 168 168 172 183 171 131 125 90 30 62 102 114 108 101 97 292 305 359 163 186 191
200 55 32 50 73 44 238 140 248 211 203 199 197 184 180 179 181 182 180 170 169 168 169 169 171 175 171 169 170 170 171 163 143 136 138 125 43 31 52 88 86 81 63 24 4 19 28 243 189
99 83 33 5 18 256 251 141 240 228 205 190 186 184 181 178 178 175 169 165 167 168 172 172 173 175 173 171 176 174 167 159 156 156 154 143 105 56 38 73 66 65 52 41 40 44 24 29 54
166 131 149 182 210 276 331 206 253 239 191 177 171 172 173 174 175 173 171 168 169 172 171 170 170 171 171 168 168 158 156 145 143 139 137 141 147 154 96 84 68 55 48 39 40 45 27 36 33
144 158 162 137 159 98 294 296 315 12 108 142 150 154 166 173 173 171 169 167 167 167 168 169 166 165 163 159 149 141 141 135 132 125 120 124 120 103 80 87 76 53 47 40 39 37 16 27 25
154 152 99 107 134 210 295 261 228 221 175 154 154 157 165 163 161 165 165 164 161 159 155 157 157 159 154 150 150 142 135 134 129 117 108 97 83 80 86 77 73 68 57 47 46 32 19 31 10
150 123 113 120 147 147 219 270 225 201 190 165 170 164 159 159 162 164 159 154 150 146 148 147 145 144 143 147 139 129 124 119 111 107 108 103 89 84 82 79 72 66 56 47 51 43 33 34 17
164 166 141 141 202 155 160 262 255 192 186 169 163 159 156 156 160 159 151 143 142 144 145 146 148 143 147 145 133 127 122 114 108 106 106 104 93 81 88 80 71 66 56 49 53 46 37 43 36